Вернуться в каталог

OPS 1292

АктивенВоенныеPO
NORAD 11852·PAYLOAD·🇺🇸 United States

Запущен Jun 18, 1980 с Vandenberg Space Force Base

Loading…

Ближайшие Пролёты (ближайшие 24 часа)

TLE

СвежийSource: Space-Track

Эпоха: Sep 14, 2026, 11:04 UTC

1 11852U 80052C   26257.46168945 -.00000007  00000-0  46804-4 0  9991
2 11852  96.6169 148.7717 0003518  48.7206 311.4202 12.83722732109432

Отслеживайте OPS 1292 в реальном времени с AllMySat

Download on the App Store